When you browse on this site, cookies collect data to enhance your experience and personalize the content and advertising you see.
Visit our Privacy Policy to learn more. By continuing to use the site, you agree to this use of cookies and data.

Meteo orario Thimphu

Oggi, 14 Agosto, Venerdi

Tempo Temperatura Precipitazioni Vento Pressione Umidità
00:00 +13°C° 0 mm 0 m/s 524 mm Hg 98%
01:00 +12°C° 0.1 mm 0 m/s 524 mm Hg 97%
02:00 +12°C° 0.1 mm 0 m/s 523 mm Hg 96%
03:00 +13°C° 0.1 mm 1 m/s 523 mm Hg 96%
04:00 +12°C° 0 mm 1 m/s 523 mm Hg 95%
05:00 +12°C° 0 mm 1 m/s 523 mm Hg 94%
06:00 +13°C° 0 mm 1 m/s 523 mm Hg 98%
07:00 +15°C° 0.1 mm 1 m/s 524 mm Hg 91%
08:00 +18°C° 0.1 mm 1 m/s 526 mm Hg 84%
09:00 +20°C° 0.1 mm 1 m/s 527 mm Hg 77%
10:00 +21°C° 0.5 mm 1 m/s 527 mm Hg 76%
11:00 +20°C° 0.5 mm 2 m/s 527 mm Hg 75%
12:00 +20°C° 0 mm 2 m/s 527 mm Hg 71%
13:00 +19°C° 1 mm 2 m/s 526 mm Hg 77%
14:00 +19°C° 1 mm 2 m/s 525 mm Hg 83%
15:00 +18°C° 1 mm 2 m/s 524 mm Hg 88%
16:00 +17°C° 0.6 mm 2 m/s 523 mm Hg 90%
17:00 +18°C° 0.6 mm 1 m/s 523 mm Hg 92%
18:00 +16°C° 0 mm 1 m/s 523 mm Hg 95%
19:00 +15°C° 0.2 mm 1 m/s 523 mm Hg 96%
20:00 +14°C° 0.2 mm 1 m/s 523 mm Hg 97%
21:00 +13°C° 0.2 mm 0 m/s 523 mm Hg 98%
22:00 +12°C° 0.3 mm 0 m/s 523 mm Hg 98%
23:00 +12°C° 0.3 mm 0 m/s 523 mm Hg 98%

Domani, 15 Agosto, Sabato

Tempo Temperatura Precipitazioni Vento Pressione Umidità
00:00 +12°C° 0.3 mm 0 m/s 523 mm Hg 97%
01:00 +11°C° 0.1 mm 0 m/s 522 mm Hg 97%
02:00 +11°C° 0.1 mm 0 m/s 522 mm Hg 96%
03:00 +11°C° 0.1 mm 0 m/s 521 mm Hg 96%
04:00 +11°C° 0 mm 0 m/s 522 mm Hg 96%
05:00 +11°C° 0 mm 0 m/s 522 mm Hg 96%
06:00 +11°C° 0 mm 0 m/s 522 mm Hg 96%
07:00 +13°C° 0 mm 0 m/s 523 mm Hg 91%
08:00 +15°C° 0 mm 1 m/s 524 mm Hg 86%
09:00 +18°C° 0 mm 1 m/s 526 mm Hg 81%
10:00 +19°C° 0.3 mm 1 m/s 526 mm Hg 78%
11:00 +20°C° 0.3 mm 1 m/s 526 mm Hg 75%
12:00 +20°C° 0.3 mm 2 m/s 527 mm Hg 72%
13:00 +19°C° 0.6 mm 2 m/s 526 mm Hg 77%
14:00 +18°C° 0.6 mm 2 m/s 525 mm Hg 82%
15:00 +18°C° 0.6 mm 2 m/s 524 mm Hg 87%
16:00 +17°C° 0.8 mm 2 m/s 524 mm Hg 91%
17:00 +16°C° 0.8 mm 2 m/s 523 mm Hg 94%
18:00 +15°C° 0.8 mm 1 m/s 523 mm Hg 98%
19:00 +14°C° 0.6 mm 1 m/s 523 mm Hg 98%
20:00 +14°C° 0.6 mm 1 m/s 523 mm Hg 98%
21:00 +12°C° 0.6 mm 0 m/s 524 mm Hg 98%
22:00 +12°C° 0.4 mm 0 m/s 524 mm Hg 98%
23:00 +12°C° 0.4 mm 0 m/s 524 mm Hg 98%

Dopodomani, 16 Agosto, Domenica

Tempo Temperatura Precipitazioni Vento Pressione Umidità
00:00 +12°C° 0.4 mm 0 m/s 524 mm Hg 98%
01:00 +12°C° 0.6 mm 0 m/s 524 mm Hg 98%
02:00 +12°C° 0.6 mm 0 m/s 523 mm Hg 98%
03:00 +12°C° 0.6 mm 0 m/s 523 mm Hg 98%
04:00 +12°C° 0.2 mm 0 m/s 523 mm Hg 97%
05:00 +12°C° 0.2 mm 0 m/s 523 mm Hg 97%
06:00 +12°C° 0.2 mm 0 m/s 524 mm Hg 96%
07:00 +13°C° 0.2 mm 0 m/s 524 mm Hg 94%
08:00 +15°C° 0.2 mm 1 m/s 525 mm Hg 93%
09:00 +15°C° 0.2 mm 1 m/s 526 mm Hg 91%
10:00 +16°C° 0.5 mm 1 m/s 526 mm Hg 88%
11:00 +18°C° 0.5 mm 1 m/s 527 mm Hg 84%
12:00 +18°C° 0.5 mm 2 m/s 527 mm Hg 81%
13:00 +18°C° 0.5 mm 2 m/s 526 mm Hg 83%
14:00 +19°C° 0.5 mm 1 m/s 525 mm Hg 86%
15:00 +18°C° 0.5 mm 1 m/s 524 mm Hg 88%
16:00 +18°C° 0.5 mm 1 m/s 524 mm Hg 91%
17:00 +16°C° 0.5 mm 1 m/s 523 mm Hg 94%
18:00 +15°C° 0.5 mm 1 m/s 523 mm Hg 97%
19:00 +15°C° 0.4 mm 1 m/s 523 mm Hg 97%
20:00 +14°C° 0.4 mm 1 m/s 524 mm Hg 98%
21:00 +14°C° 0.4 mm 1 m/s 524 mm Hg 99%
22:00 +13°C° 0.6 mm 0 m/s 524 mm Hg 98%
23:00 +13°C° 0.6 mm 0 m/s 524 mm Hg 98%

17 Agosto, Lunedi

Tempo Temperatura Precipitazioni Vento Pressione Umidità
00:00 +12°C° 0.6 mm 0 m/s 524 mm Hg 98%
01:00 +12°C° 0.3 mm 0 m/s 524 mm Hg 98%
02:00 +12°C° 0.3 mm 0 m/s 524 mm Hg 97%
03:00 +12°C° 0.3 mm 0 m/s 524 mm Hg 97%
04:00 +12°C° 0 mm 0 m/s 523 mm Hg 96%
05:00 +12°C° 0 mm 0 m/s 523 mm Hg 96%
06:00 +12°C° 0 mm 0 m/s 523 mm Hg 96%
07:00 +13°C° 0.1 mm 0 m/s 524 mm Hg 90%
08:00 +16°C° 0.1 mm 1 m/s 526 mm Hg 85%
09:00 +19°C° 0.1 mm 1 m/s 527 mm Hg 79%
10:00 +20°C° 0.4 mm 1 m/s 527 mm Hg 78%
11:00 +19°C° 0.4 mm 2 m/s 526 mm Hg 76%
12:00 +20°C° 0.4 mm 2 m/s 526 mm Hg 75%
13:00 +19°C° 0.6 mm 2 m/s 525 mm Hg 79%
14:00 +19°C° 0.6 mm 2 m/s 524 mm Hg 83%
15:00 +18°C° 0.6 mm 2 m/s 524 mm Hg 87%
16:00 +17°C° 0.3 mm 2 m/s 523 mm Hg 90%
17:00 +16°C° 0.3 mm 1 m/s 523 mm Hg 93%
18:00 +16°C° 0.3 mm 1 m/s 522 mm Hg 96%
19:00 +15°C° 0.4 mm 1 m/s 523 mm Hg 97%
20:00 +15°C° 0.4 mm 1 m/s 523 mm Hg 98%
21:00 +13°C° 0.4 mm 0 m/s 524 mm Hg 98%
22:00 +13°C° 0.4 mm 0 m/s 524 mm Hg 98%
23:00 +13°C° 0.4 mm 0 m/s 524 mm Hg 98%

18 Agosto, Martedi

Tempo Temperatura Precipitazioni Vento Pressione Umidità
00:00 +13°C° 0.4 mm 0 m/s 524 mm Hg 98%
01:00 +13°C° 0.1 mm 0 m/s 524 mm Hg 98%
02:00 +13°C° 0.1 mm 0 m/s 524 mm Hg 98%
03:00 +13°C° 0.1 mm 0 m/s 523 mm Hg 97%
04:00 +13°C° 0 mm 0 m/s 523 mm Hg 97%
05:00 +12°C° 0 mm 0 m/s 523 mm Hg 96%
06:00 +12°C° 0 mm 0 m/s 523 mm Hg 95%
07:00 +14°C° 0 mm 0 m/s 525 mm Hg 89%
08:00 +18°C° 0 mm 1 m/s 526 mm Hg 82%
09:00 +20°C° 0 mm 1 m/s 527 mm Hg 76%
10:00 +20°C° 0.1 mm 2 m/s 527 mm Hg 72%
11:00 +21°C° 0.1 mm 2 m/s 527 mm Hg 69%
12:00 +23°C° 0.1 mm 2 m/s 528 mm Hg 65%
13:00 +21°C° 0.4 mm 2 m/s 527 mm Hg 71%
14:00 +20°C° 0.4 mm 2 m/s 525 mm Hg 76%
15:00 +19°C° 0.4 mm 2 m/s 524 mm Hg 82%
16:00 +18°C° 0.7 mm 2 m/s 524 mm Hg 87%
17:00 +18°C° 0.7 mm 1 m/s 524 mm Hg 91%
18:00 +16°C° 0.7 mm 1 m/s 523 mm Hg 96%
19:00 +15°C° 0.7 mm 1 m/s 524 mm Hg 97%
20:00 +15°C° 0.7 mm 1 m/s 524 mm Hg 97%
21:00 +13°C° 0.7 mm 0 m/s 524 mm Hg 98%
22:00 +13°C° 0.8 mm 0 m/s 524 mm Hg 98%
23:00 +12°C° 0.8 mm 0 m/s 524 mm Hg 98%

19 Agosto, Mercoledi

Tempo Temperatura Precipitazioni Vento Pressione Umidità
00:00 +12°C° 0.8 mm 0 m/s 524 mm Hg 98%
01:00 +12°C° 0.4 mm 0 m/s 524 mm Hg 97%
02:00 +12°C° 0.4 mm 0 m/s 524 mm Hg 97%
03:00 +12°C° 0.4 mm 0 m/s 523 mm Hg 97%
04:00 +12°C° 0 mm 0 m/s 523 mm Hg 96%
05:00 +12°C° 0 mm 0 m/s 523 mm Hg 96%
06:00 +12°C° 0 mm 0 m/s 523 mm Hg 96%
07:00 +15°C° 0 mm 1 m/s 525 mm Hg 88%
08:00 +18°C° 0 mm 1 m/s 526 mm Hg 80%
09:00 +20°C° 0 mm 1 m/s 527 mm Hg 72%
10:00 +19°C° 0.2 mm 2 m/s 527 mm Hg 70%
11:00 +20°C° 0.2 mm 2 m/s 527 mm Hg 69%
12:00 +20°C° 0.2 mm 3 m/s 527 mm Hg 68%
13:00 +20°C° 0.8 mm 3 m/s 526 mm Hg 73%
14:00 +19°C° 0.8 mm 2 m/s 525 mm Hg 78%
15:00 +18°C° 0.8 mm 2 m/s 524 mm Hg 83%
16:00 +17°C° 0.7 mm 2 m/s 524 mm Hg 87%
17:00 +16°C° 0.7 mm 2 m/s 523 mm Hg 91%
18:00 +15°C° 0.7 mm 1 m/s 522 mm Hg 95%
19:00 +14°C° 0.4 mm 1 m/s 523 mm Hg 95%
20:00 +13°C° 0.4 mm 1 m/s 523 mm Hg 96%
21:00 +12°C° 0.4 mm 1 m/s 523 mm Hg 96%
22:00 +12°C° 0.2 mm 1 m/s 523 mm Hg 96%
23:00 +12°C° 0.2 mm 1 m/s 523 mm Hg 95%
Mostrare altro